Location: Seattle
(47.6064°N, 122.3308°W)
Time: 01:27:48
(UTC-08:00)

Tiros 1 - Pass Details

Date: 29 November 2020
Orbit: 630 x 663 km, 48.4° (Epoch: 28 January)

Event Time Altitude Azimuth Distance (km) Brightness Sun altitude
Rises 22:06:08 0° 279° (W) 2,974 - -55.7°
Reaches altitude 10° 22:09:58 10° 248° (WSW) 2,049 - -56.2°
Maximum altitude 22:11:40 12° 227° (SW) 1,919 - -56.4°
Drops below altitude 10° 22:13:23 10° 205° (SSW) 2,036 - -56.7°
Sets 22:17:10 0° 174° (S) 2,931 - -57.1°
